ORBCOMM FM 11

Satellite information

Favourite Embed

Satellite Type and Status

PAYLOADIN ORBIT

Key statistics

Satellite ORBCOMM FM 11 at a glance.

Uptime

10218

Days in orbit

Revolutions

≈ 14.5

Per day

Orbit

LEO

Low Earth Orbit

Inclination

45.0

Latest

Satellite identification and parameters

Extended collection of information and parameters for ORBCOMM FM 11.

Object identification

Identified? True

Debris? False

Object name: ORBCOMM FM 11

International designator: 1997-084C

Object number (NORAD): 25114

Object ID (CCSDS): 25114

Country: ORBITAL TELECOMMUNICATIONS SATELLITE (GLOBALSTAR) (ORB)

Current information (Y/N): Y

RCS size: MEDIUM

Orbital parameters

Period: 99.58 minutes

Inclination: 45.0122 deg

SMA: 7116.616 km

Apoapsis: 742.972 km

Periapsis: 733.99 km

RAAN: 236.6404 deg

Eccentricy: 0.00063103

Argument of periapsis: 32.2022 deg

Mean anomaly: 327.9214 deg

Mean motion: 14.46080474 rev/day

Mean motion (dot): 0.00002528 rev/day2

B* drag term: 0.00074160115 1/REarth

Two-line elements (TLE)

Creation date: Dec. 12, 2025, 10:14 a.m.

Reference frame: TEME

Reference center: EARTH

Epoch: Dec. 12, 2025, 4:22 a.m. UTC

TLE line 0: 0 ORBCOMM FM 11

TLE line 1: 1 25114U 97084C 25346.18210436 .00002528 00000-0 74160-3 0 9994

TLE line 2: 2 25114 45.0122 236.6404 0006310 32.2022 327.9214 14.46080474467233

Live tracking on map

Real-time ground track for satellite ORBCOMM FM 11.

In-orbit conjunctions

There are no conjunctions computed for ORBCOMM FM 11, at the moment. Check back to stay up to date, as we update our databases every day.

Go to all conjunctions

Associated space launch

ORBCOMM FM 11 was lifted into orbit during the mission ‘Pegasus XL HAPS | Orbcomm-A1 - A8’, on board a Pegasus XL HAPS space rocket.

The launch took place on Dec. 23, 1997, 7:11 p.m. from Wallops Flight Facility.

For more information about the launch, click the button.

Launch to space Pegasus XL HAPS | Orbcomm-A1 - A8
Pegasus XL HAPS | Orbcomm-A1 - A8

Agency: N/A

Status: Launch Successful

Launch date: Dec. 23, 1997, 7:11 p.m. UTC

Rocket: Pegasus XL HAPS

Launch pad: Wallops Flight Facility

Location: Air launch to orbit

...

Latest news about this satellite

There are no fresh news available about this satellite. Check back as we update our databases every day.


Newsletter sign-up

Weekly statistics, charts and insights to help you stay on top of the space industry.